{"data":{"norad_id":63601,"epoch":"2026-05-25T03:50:48.327648Z","epoch_age_seconds":55062,"freshness":"FRESH","line1":"1 63601U 25078C   26145.16028157  .00000012  00000+0  78405-4 0  9996","line2":"2 63601  99.6907 152.7994 0001127  95.2068 264.9199 13.57243844 54411","mean_motion":13.57243844,"eccentricity":0.0001127,"inclination_deg":99.6907,"raan_deg":152.7994,"arg_perigee_deg":95.2068,"mean_anomaly_deg":264.9199,"bstar":7.8405e-5,"rev_number":5441,"period_min":106.09736830753,"perigee_km":1044.8888548702,"apogee_km":1046.5621934832,"semimajor_km":7423.8625241767,"source":"CELESTRAK","updated_at":"2026-05-25T13:38:03.845379Z"}}